Weather observations for the past three days for
LaGrange-Callaway Airport
Imperial (Metric)
Date Time (edt) Wind (mph) Vis. (mi.) Weather Sky Cond. Temperature (ºF) Relative Humidity Wind Chill (°F) Heat Index (°F) Pressure Precipitation (in)
Air Dwpt 6 hour altimeter (in) sea level (mb) 1 hr 3 hr 6 hr
Max. Min.
23 13:35 SW 5 10.00 Partly Cloudy SCT032 SCT041 88.2 73.8 62% 97 30.11 0.0
23 13:15 SW 7 10.00 Fair CLR 87.3 73.9 65% 96 30.12 0.0
23 12:55 SW 8 10.00 Fair CLR 86.9 73.4 64% 95 30.13 0.0
23 12:35 SW 6 10.00 Partly Cloudy SCT025 SCT060 86.9 74.8 67% 96 30.14 0.0
23 12:15 S 7 10.00 Mostly Cloudy SCT025 BKN036 BKN043 87.4 75.7 68% 98 30.14 0.0
23 11:55 SW 8 10.00 Partly Cloudy SCT026 SCT036 SCT048 86 74.8 69% 95 30.14 0.0
23 11:35 S 6 10.00 Mostly Cloudy SCT021 SCT029 BKN034 85.1 74.1 70% 93 30.13 0.0
23 11:15 S 3 10.00 Mostly Cloudy BKN019 BKN024 84.9 75.2 73% 94 30.13 0.0
23 10:55 Calm 10.00 Mostly Cloudy BKN017 83.5 74.8 75% 91 30.13 0.0
23 10:35 Calm 10.00 Partly Cloudy SCT015 82 74.5 78% 88 30.13 0.0
23 10:15 Calm 10.00 Partly Cloudy SCT013 81.5 74.5 79% 87 30.13 0.0
23 09:55 Calm 10.00 Partly Cloudy SCT011 81.3 74.3 79% 87 30.13 0.0
23 09:35 Calm 10.00 Mostly Cloudy BKN009 79.3 73.8 83% 83 30.13 0.0
23 09:15 Calm 10.00 Partly Cloudy SCT009 79.3 73.6 83% 83 30.13 0.0
23 08:55 Calm 10.00 Partly Cloudy SCT009 77.9 73.4 86% 80 30.12 0.0
23 08:35 Calm 10.00 Partly Cloudy SCT009 76.6 73.4 90% 77 30.12 0.0
23 08:15 Calm 10.00 Mostly Cloudy BKN009 BKN013 74.3 72.9 95% 30.11 0.0
23 07:55 Calm 10.00 Mostly Cloudy BKN011 72.9 72 73 70.7 97% 30.11 0.0
23 07:35 Calm 10.00 Overcast OVC015 72.7 71.6 96% 30.11 0.0
23 07:15 Calm 10.00 Mostly Cloudy BKN017 BKN025 BKN047 72.5 71.2 96% 30.11 0.0
23 06:55 Calm 10.00 Overcast OVC017 71.8 70.9 97% 30.1 0.0
23 06:35 Calm 10.00 Mostly Cloudy BKN019 71.6 70.7 97% 30.1 0.0
23 06:15 Calm 10.00 Fair CLR 71.6 70.7 97% 30.1 0.0
23 05:55 Calm 10.00 Partly Cloudy SCT031 SCT046 71.6 70.7 97% 30.09 0.0
23 05:35 Calm 10.00 Fair CLR 71.2 70.2 96% 30.09 0.0
23 05:15 Calm 10.00 Partly Cloudy SCT027 71.2 70.2 96% 30.08 0.0
23 04:55 Calm 10.00 Mostly Cloudy BKN027 71.6 70.3 96% 30.08 0.0
23 04:35 Calm 10.00 Overcast OVC027 71.6 70.3 96% 30.07 0.0
23 04:15 Calm 10.00 Overcast OVC027 71.2 70.2 96% 30.07 0.0
23 03:55 Calm 10.00 Partly Cloudy SCT027 71.2 70.2 96% 30.07 0.0
23 03:35 Calm 10.00 Partly Cloudy SCT023 71.1 70 96% 30.07 0.0
23 03:15 Calm 10.00 Partly Cloudy SCT023 71.2 70.2 96% 30.07 0.0
23 02:35 Calm 10.00 Partly Cloudy SCT017 71.4 70.3 96% 30.07 0.0
23 02:15 Calm 10.00 Fair CLR 71.6 70.3 96% 30.08 0.0
23 01:55 Calm 10.00 Fair CLR 71.6 70.5 81.3 71.6 96% 30.09 0.0
23 01:35 Calm 10.00 Fair CLR 72.5 70.9 95% 30.09 0.0
23 01:15 Calm 10.00 Fair CLR 72.1 70.9 96% 30.09 0.0
23 00:55 Calm 10.00 Partly Cloudy SCT045 73.2 71.4 94% 30.09 0.0
23 00:35 Calm 10.00 Mostly Cloudy SCT039 BKN045 74.3 71.6 91% 30.09 0.0
23 00:15 Calm 10.00 Mostly Cloudy BKN040 74.3 71.8 92% 30.09 0.0
22 23:55 Calm 10.00 Fair CLR 73.9 72.1 94% 30.08 0.0
22 23:35 Calm 10.00 Fair CLR 74.3 72.3 94% 30.08 0.0
22 23:15 Calm 10.00 Fair CLR 75 72.3 91% 74 30.07 0.0
22 22:55 Calm 10.00 Fair CLR 74.5 72.5 94% 30.07 0.0
22 22:15 S 3 10.00 Fair CLR 76.5 72.5 88% 77 30.06 0.0
22 21:55 Calm 10.00 Fair CLR 75.4 73.9 95% 74 30.06 0.0
22 21:35 Calm 10.00 Fair CLR 76.5 73.6 91% 77 30.06 0.0
22 21:15 Calm 10.00 Fair CLR 76.6 73.8 91% 77 30.05 0.0
22 20:55 Calm 10.00 Fair CLR 77.9 74.3 89% 80 30.04 0.0
22 20:35 S 6 10.00 Fair CLR 79 74.8 87% 83 30.04 0.0
22 20:15 Calm 10.00 Fair CLR 80.2 75 84% 85 30.03 0.0
22 19:55 Calm 10.00 Fair CLR 81.5 74.5 87.1 81.5 79% 87 30.03 0.0
22 19:35 SW 3 10.00 Fair CLR 82.4 74.3 77% 89 30.03 0.0
22 19:15 S 3 10.00 Partly Cloudy SCT036 82.4 73.8 75% 88 30.01 0.0
22 18:55 S 6 10.00 Partly Cloudy SCT036 83.7 73 70% 90 30.01 0.0
22 18:35 Calm 10.00 Fair CLR 84.6 72.5 67% 91 30.02 0.0
22 18:15 Calm 10.00 Partly Cloudy SCT033 83.8 72.7 69% 90 30.02 0.0
22 17:55 W 5 10.00 Partly Cloudy SCT035 84.7 71.6 65% 90 30.02 0.0
22 17:15 W 5 10.00 Partly Cloudy SCT032 SCT041 86.4 71.8 62% 93 30.02 0.0
22 16:55 S 6 10.00 Partly Cloudy SCT032 SCT040 86.9 72.9 63% 94 30.02 0.0
22 16:35 SW 3 10.00 Partly Cloudy SCT027 SCT034 SCT055 85.1 72.1 65% 91 30.03 0.0
22 16:15 SW 3 10.00 Mostly Cloudy SCT016 SCT029 BKN049 84.2 72.3 68% 90 30.04 0.0
22 15:55 Calm 10.00 Light Rain SCT019 SCT029 BKN065 83.7 73 70% 90 30.04 0.0
22 15:35 S 3 10.00 Partly Cloudy SCT027 SCT043 85.1 71.6 64% 91 30.05 0.0
22 15:15 Calm 10.00 Mostly Cloudy BKN029 BKN037 84.7 71.8 65% 90 30.06 0.0
22 14:55 Calm 10.00 Overcast BKN025 OVC035 83.1 71.8 69% 88 30.07 0.0
22 14:35 Calm 10.00 Mostly Cloudy SCT023 BKN030 82.6 71.8 70% 88 30.07 0.0
22 14:15 Calm 10.00 Mostly Cloudy SCT023 BKN028 82.6 71.2 69% 87 30.08 0.0
22 13:55 Calm 10.00 Partly Cloudy SCT019 81.7 71.6 82 69.8 72% 86 30.09 0.0
22 13:35 Calm 10.00 Partly Cloudy SCT017 80.6 71.1 73% 84 30.1 0.0
22 13:15 Calm 10.00 Mostly Cloudy SCT014 BKN019 79.3 71.4 77% 83 30.1 0.0
22 12:55 Calm 7.00 Mostly Cloudy BKN014 79.2 72.1 79% 82 30.1 0.0
22 12:35 Calm 10.00 Mostly Cloudy BKN014 BKN029 BKN036 78.3 71.8 81% 81 30.11 0.0
22 12:15 Calm 10.00 Mostly Cloudy BKN012 BKN042 77.9 71.6 81% 80 30.11 0.0
22 11:55 Calm 10.00 Mostly Cloudy BKN010 77 71.4 83% 78 30.11 0.0
22 11:35 Calm 10.00 Mostly Cloudy BKN010 75.9 71.2 85% 76 30.11 0.0
22 11:15 Calm 10.00 Mostly Cloudy BKN010 BKN014 BKN049 75.9 71.6 87% 76 30.12 0.0
22 10:55 Calm 10.00 Partly Cloudy SCT008 SCT036 75.2 71.2 88% 75 30.11 0.0
22 10:35 Calm 10.00 Mostly Cloudy BKN008 75.4 71.2 87% 75 30.1 0.0
22 10:15 Calm 10.00 Overcast OVC006 74.3 71.1 90% 30.1 0.0
22 09:55 Calm 10.00 Overcast OVC006 72.9 71.1 94% 30.1 0.0
22 09:35 Calm 10.00 Overcast OVC004 71.6 70.3 96% 30.1 0.0
22 09:15 Calm 10.00 Overcast OVC004 70.9 69.8 96% 30.1 0.0
22 08:55 Calm 10.00 Overcast OVC002 70.3 69.4 97% 30.09 0.0
22 08:35 Calm 10.00 Overcast OVC002 70.3 69.3 96% 30.09 0.0
22 08:15 Calm 7.00 Overcast OVC002 70.2 69.1 96% 30.09 0.0
22 07:55 Calm 1.25 Fog/Mist OVC002 69.8 68.9 71.8 68.2 97% 30.07 0.0
22 07:35 Calm 7.00 Overcast OVC004 68.9 68 97% 30.07 0.0
22 07:15 Calm 0.25 Fog OVC002 68.5 67.5 96% 30.06 0.0
22 06:55 Calm 0.50 Fog OVC002 68.9 68 97% 30.05 0.0
22 06:35 Calm 0.25 Fog OVC002 68.9 67.6 96% 30.05 0.0
22 06:15 Calm 0.50 Fog OVC002 68.9 68 97% 30.04 0.0
22 05:55 Calm 1.25 Fog/Mist OVC002 68.5 67.6 97% 30.04 0.0
22 05:35 Calm 0.50 Fog OVC002 69.1 68 96% 30.04 0.0
22 05:15 Calm 1.25 Fog/Mist BKN002 68.9 67.8 96% 30.04 0.0
22 04:55 Calm 1.25 Fog/Mist SCT002 69.1 68 96% 30.04 0.0
22 04:35 Calm 7.00 Partly Cloudy SCT005 SCT013 70 68.9 96% 30.04 0.0
22 04:15 Calm 10.00 Mostly Cloudy BKN005 BKN013 70.7 69.6 96% 30.04 0.0
22 03:55 Calm 10.00 Partly Cloudy SCT005 70.3 69.4 97% 30.05 0.0
22 03:35 Calm 10.00 Partly Cloudy SCT120 70.9 69.8 96% 30.04 0.0
22 03:15 Calm 10.00 Overcast SCT008 OVC120 70.9 70 97% 30.05 0.0
22 02:55 Calm 10.00 Overcast OVC008 71.2 70.2 96% 30.07 0.0
22 02:35 W 3 10.00 Overcast BKN005 OVC010 71.6 70.7 97% 30.07 0.0
22 02:15 Calm 10.00 Light Drizzle BKN008 BKN013 BKN110 71.6 70.5 96% 30.07 0.0
22 01:55 Calm 10.00 Overcast OVC008 71.2 70.2 72 70.9 96% 30.08 0.0
22 01:35 Calm 10.00 Light Rain SCT004 SCT008 SCT047 70.9 70 97% 30.08 0.0
22 01:15 Calm 10.00 Light Rain BKN004 BKN047 BKN065 71.2 70.2 96% 30.07 0.0
22 00:55 SE 3 10.00 Light Rain OVC004 71.4 70.3 96% 30.06 0.0
22 00:35 Calm 10.00 Light Rain BKN004 BKN048 BKN070 71.1 70.2 97% 30.07 0.0
22 00:15 SE 6 10.00 Light Rain OVC004 71.2 70.2 96% 30.09 0.0
21 23:55 S 5 10.00 Light Rain BKN004 BKN014 OVC120 71.6 70.3 96% 30.1 0.0
21 23:35 Calm 10.00 Light Rain OVC006 71.4 70.3 96% 30.1 0.0
21 23:15 Calm 10.00 Light Rain OVC006 71.4 70.3 96% 30.1 0.0
21 22:55 Calm 10.00 Light Rain SCT008 SCT027 BKN120 71.2 70.2 96% 30.11 0.0
21 22:35 Calm 10.00 Light Rain SCT095 SCT110 71.1 70 96% 30.1 0.0
21 22:15 Calm 10.00 Light Rain SCT005 SCT095 71.2 70.2 96% 30.09 0.0
21 21:55 SE 5 10.00 Light Rain BKN005 BKN012 71.2 70.2 96% 30.08 0.0
21 21:35 Calm 10.00 Light Rain BKN005 BKN050 BKN070 71.6 70.3 96% 30.08 0.0
21 21:15 Calm 7.00 Light Rain CLR 71.6 70.3 96% 30.07 0.0
21 20:55 Calm 10.00 Rain CLR 71.6 70.5 96% 30.07 0.0
21 20:35 SE 3 10.00 Light Rain CLR 71.6 70.7 97% 30.05 0.0
21 20:15 SE 3 5.00 Light Rain SCT120 71.6 70.7 97% 30.05 0.0
21 19:55 Calm 10.00 Light Rain SCT110 72 70.9 88 71.6 96% 30.06 0.0
21 19:35 Calm 10.00 Light Rain OVC110 72.1 70.7 95% 30.06 0.0
21 19:15 NW 3 10.00 Rain SCT110 72.3 70.9 95% 30.06 0.0
21 18:55 Calm 10.00 Partly Cloudy SCT065 SCT110 71.8 70.3 95% 30.06 0.0
21 18:35 Calm 10.00 Light Rain SCT065 SCT075 SCT110 72 70.5 95% 30.04 0.0
21 18:15 SW 5 10.00 Partly Cloudy SCT120 72.3 70.5 94% 30.04 0.0
21 17:55 SE 3 10.00 Light Rain SCT005 SCT049 BKN120 71.8 70.7 96% 30.04 0.0
21 17:35 S 8 10.00 Mostly Cloudy SCT005 BKN050 BKN065 71.8 70.7 96% 30.04 0.0
21 17:15 SE 7 10.00 Light Rain SCT055 SCT075 BKN100 72.5 71.2 96% 30.05 0.0
21 16:55 SE 8 7.00 Heavy Rain SCT065 OVC090 73 70.9 93% 30.08 0.0
21 16:35 S 9 4.00 Fog/Mist SCT070 BKN090 BKN120 73.9 69.4 86% 30.07 0.0
21 16:15 N 5 10.00 Mostly Cloudy SCT050 BKN070 BKN090 75.2 68.9 81% 76 30.01 0.0
21 15:55 N 8 10.00 Overcast SCT029 BKN055 OVC090 76.3 69.6 80% 77 30.03 0.0
21 15:35 NW 17 G 26 10.00 Light Rain SCT031 BKN050 OVC060 80.4 75 84% 86 30.05 0.0
21 15:15 Calm 5.00 Rain SCT010 BKN055 OVC090 77.7 74.3 89% 80 30.04 0.0
21 14:55 W 9 G 23 2.50 Heavy Rain SCT012 BKN030 BKN035 80.4 73.4 79% 85 30.04 0.0
21 14:35 Calm 10.00 Partly Cloudy SCT032 87.4 72.5 61% 95 30.03 0.0
21 14:15 Calm 10.00 Partly Cloudy SCT032 86.4 73.8 66% 94 30.04 0.0
21 13:50 Calm 10.00 Partly Cloudy SCT020 SCT026 85.1 74.8 71% 93 30.06 0.0
21 13:35 SE 6 10.00 Mostly Cloudy SCT020 BKN026 BKN031 85.1 74.8 71% 93 30.07 0.0
21 13:15 Calm 10.00 Mostly Cloudy SCT020 BKN030 84.6 74.5 72% 92 30.07 0.0
21 12:55 Calm 10.00 Partly Cloudy SCT020 82.8 73.6 74% 89 30.09 0.0
21 12:35 Calm 10.00 Fair CLR 82 73.6 76% 88 30.09 0.0
21 12:15 NW 3 10.00 Fair CLR 79.9 72.7 79% 84 30.09 0.0
21 11:55 N 3 10.00 Mostly Cloudy SCT022 SCT028 BKN035 77.4 73.8 89% 79 30.09 0.0
21 11:35 NW 9 10.00 Mostly Cloudy SCT020 SCT025 BKN034 82.6 72.7 72% 88 30.09 0.0
21 11:15 SW 3 10.00 Mostly Cloudy SCT014 SCT021 BKN046 82.8 75.7 79% 91 30.09 0.0
21 10:55 SW 3 10.00 Overcast SCT014 BKN019 OVC040 81.7 75.2 81% 88 30.09 0.0
21 10:35 W 3 10.00 Overcast SCT009 BKN014 OVC041 81.1 75.2 82% 87 30.09 0.0
21 10:15 W 8 10.00 Overcast BKN009 OVC014 80.1 75.6 86% 85 30.1 0.0
21 09:35 S 5 10.00 Overcast BKN006 OVC012 77 75.6 95% 78 30.1 0.0
21 09:15 Calm 10.00 Light Rain BKN006 OVC010 75.9 74.7 96% 75 30.1 0.0
21 08:55 Calm 7.00 Light Rain BKN008 BKN023 OVC034 75 73.8 96% 73 30.09 0.0
21 08:35 SE 5 5.00 Light Rain BKN006 BKN011 OVC024 75.2 74.1 96% 73 30.1 0.0
21 08:15 Calm 5.00 Light Rain OVC008 74.7 73.6 96% 30.09 0.0
21 07:55 Calm 10.00 Overcast OVC006 74.3 73.4 97% 30.09 0.0
21 07:35 S 3 7.00 Light Rain OVC006 74.3 73.2 96% 30.09 0.0
21 07:15 Calm 7.00 Light Rain BKN004 OVC012 74.3 73.2 96% 30.08 0.0
21 06:55 Calm 5.00 Light Rain SCT006 BKN014 OVC018 74.3 73 96% 30.08 0.0
21 06:35 S 5 10.00 Overcast BKN004 OVC016 74.3 73.4 97% 30.08 0.0
21 06:15 S 5 10.00 Overcast BKN004 OVC016 74.3 73.4 97% 30.08 0.0
21 05:15 S 3 10.00 Overcast OVC006 74.5 73.4 96% 30.07 0.0
21 04:55 Calm 10.00 Overcast OVC006 74.3 73.4 97% 30.07 0.0
21 04:35 SE 3 10.00 Overcast OVC006 74.3 73.4 97% 30.07 0.0
21 04:15 SE 3 10.00 Overcast OVC006 74.3 73.2 96% 30.08 0.0
21 03:55 Calm 10.00 Overcast OVC006 74.3 73 96% 30.08 0.0
21 03:35 S 3 10.00 Overcast OVC010 74.3 73 96% 30.08 0.0
21 02:55 S 3 10.00 Overcast BKN007 OVC012 74.3 73.2 96% 30.09 0.0
21 02:35 Calm 10.00 Overcast OVC007 74.1 73 96% 30.09 0.0
21 02:15 Calm 10.00 Overcast OVC007 74.3 73.4 97% 30.09 0.0
21 01:55 S 3 10.00 Overcast OVC005 74.3 73.2 96% 30.1 0.0
21 01:35 S 5 10.00 Overcast OVC005 74.3 73.2 96% 30.1 0.0
21 01:15 S 3 10.00 Overcast OVC005 74.3 73 96% 30.1 0.0
21 00:55 S 5 10.00 Overcast OVC005 74.1 73 96% 30.1 0.0
21 00:35 S 5 10.00 Overcast OVC005 73.8 72.9 97% 30.1 0.0
21 00:15 S 3 10.00 Overcast OVC007 73.4 72.5 97% 30.1 0.0
20 23:55 SE 3 10.00 Overcast BKN007 OVC022 73.4 72.5 97% 30.09 0.0
20 23:40 SE 5 10.00 Mostly Cloudy BKN007 BKN022 73.8 72.7 96% 30.1 0.0
20 23:15 S 5 10.00 Overcast OVC007 74.3 73.4 97% 30.11 0.0
20 22:55 SE 3 10.00 Mostly Cloudy BKN009 74.3 73.2 96% 30.11 0.0
20 22:35 SE 3 10.00 Mostly Cloudy SCT011 BKN024 73.8 72.9 97% 30.11 0.0
20 22:10 Calm 10.00 Mostly Cloudy SCT024 BKN044 BKN050 73.8 72.7 96% 30.11 0.0
20 20:55 Calm 10.00 Fair CLR 75 73.6 95% 73 30.07 0.0
20 20:30 Calm 10.00 Fair CLR 77 73.4 89% 78 30.07 0.0
20 20:15 Calm 10.00 Fair CLR 77 73.4 89% 78 30.07 0.0
20 19:55 S 5 10.00 Fair CLR 77.4 73.2 87% 79 30.07 0.0
20 19:30 S 3 10.00 Fair CLR 77.4 73 87% 79 30.07 0.0
20 18:55 S 6 10.00 Partly Cloudy SCT060 78.3 73.2 85% 81 30.07 0.0
20 18:30 Calm 10.00 Partly Cloudy SCT060 79.2 72.9 81% 83 30.07 0.0
20 18:10 S 7 10.00 Fair CLR 79 73 82% 82 30.07 0.0
20 17:55 S 8 10.00 Fair CLR 78.1 72.9 84% 81 30.07 0.0
20 17:35 SE 5 10.00 Fair CLR 78.8 72.7 82% 82 30.08 0.0
20 17:15 S 5 10.00 Fair CLR 77.7 72.9 85% 80 30.09 0.0
20 16:55 S 8 10.00 Fair CLR 76.6 71.8 85% 78 30.1 0.0
20 16:35 SE 5 10.00 Fair CLR 76.5 72.7 88% 77 30.1 0.0
20 16:15 S 5 10.00 Partly Cloudy SCT120 76.8 72.5 87% 78 30.1 0.0
20 15:55 Calm 10.00 Partly Cloudy SCT008 76.8 72.7 87% 78 30.1 0.0
20 15:35 S 5 10.00 Fair CLR 76.5 73.6 91% 77 30.09 0.0
20 15:15 S 7 10.00 Mostly Cloudy SCT009 SCT032 BKN095 77.2 75 93% 78 30.11 0.0
20 14:55 S 7 10.00 Light Rain SCT011 BKN075 OVC095 77 75.2 94% 78 30.12 0.0
20 14:35 S 6 5.00 Heavy Rain SCT013 BKN044 OVC080 76.3 75 96% 76 30.13 0.0
20 14:15 SE 3 1.00 Heavy Rain BKN031 OVC050 76.5 74.8 95% 77 30.11 0.0
20 13:55 S 8 7.00 Rain SCT026 SCT050 OVC060 78.8 74.3 83.3 71.6 86% 82 30.11 0.0
Date Time (edt) Wind (mph) Vis. (mi.) Weather Sky Cond. Air Dwpt Max. Min. Relative Humidity Wind Chill (°F) Heat Index (°F) altimeter (in) sea level (mb) 1 hr 3 hr 6 hr
6 hour
Temperature (ºF) Pressure Precipitation (in)